星链-35221(STARLINK-35221)

导读

STARLINK-35221是由美国发射的星链卫星,于2025年9月21日升空,隶属于SpaceX公司的星链星座项目。星链旨在构建全球卫星互联网星座,为全球提供低延迟、宽带覆盖的网络服务,尤其为偏远地区等地面网络难以覆盖区域提供联网支持,该卫星的发射进一步扩充了星链星座的在轨规模。

基本信息
目录编号:
65695
目录名称:
STARLINK-35221
国际标识:
2025-212V
轨道中心:
EARTH
卫星名称:
星链-35221
卫星全名:
星链-35221(STARLINK-35221)
卫星状态:
在轨 (已飞行349 天)
发射日期:
2025-09-21 UTC
国别 :
美国 (US)
星等 :
--
轨道信息
数据来源 国际轨道数据 AOE轨道数据
星历时间 2026-09-05T14:00:29+0800
13小时前
查看轨道信息
2026-09-03T23:00:00+0800
2天前
查看轨道信息
半长轴 6848.866km 6848.872km
偏心率 0.0001389 0.0001465
轨道倾角 53.158° 53.157°
近地点辐角 91.584° 75.598°
升交点赤经 231.025° 238.597°
平近点角 268.532° 317.228°
近地点 469.777km 469.731km
远地点 471.681km 471.739km
周期 94.013分钟 94.013分钟
每日圈数 15.31704 15.31702
详细信息
固有亮度:
5
最大亮度:
2.5
卫星平台:
Starlink V1.0
覆盖范围:
全球
运营商:
太空探索技术公司
运营商所在国:
美国
制造商(研发单位):
太空探索技术公司
制造商所在国:
美国
使用方式:
暂无
卫星简介
Starlink 计划是 SpaceX 推出的全球卫星互联网项目,通过发射低轨道卫星,为全球尤其是偏远地区提供高速、低延迟的互联网服务。自 2019 年起,Starlink 已部署数千颗卫星,旨在缩小全球数字鸿沟,推动互联网普及。该项目还为军事、航空等行业提供通信支持,带来广泛经济效益。
2D轨道图
3D轨道图
轨道高度分析图
轨道倾角分析图
轨道综合分析图
查看轨道综合分析图
交会数据列表
事件ID 空间交会对象 最接近时刻(TCA) 交会距离 交会风险概率(CRP) 交会风险指数(CRI) 操作
CDM_260908-022706-569506-882021
2026-09-08T
02:27:41+0000
2.744 km
极远距离
1.405537E-6 低风险 0.38
CDM_260907-082206-569506-816221
2026-09-07T
08:22:01+0000
2.573 km
极远距离
1.171038E-6 低风险 0.36